Hourly Weather Barskoe

Today, 24 November, Tuesday

Time Temperature Precipitation Wind Pressure Humidity
00:00 +1°C° 0.2 mm 3 mps 746 mmHg 97%
01:00 +1°C° 0.1 mm 3 mps 746 mmHg 97%
02:00 +1°C° 0.1 mm 3 mps 746 mmHg 97%
03:00 +2°C° 0 mm 2 mps 746 mmHg 97%
04:00 +2°C° 0.1 mm 2 mps 746 mmHg 97%
05:00 +2°C° 0.1 mm 2 mps 745 mmHg 97%
06:00 +2°C° 0.1 mm 2 mps 745 mmHg 98%
07:00 +2°C° 0.2 mm 2 mps 745 mmHg 97%
08:00 +2°C° 0.2 mm 2 mps 745 mmHg 97%
09:00 +2°C° 0 mm 2 mps 745 mmHg 97%
10:00 +2°C° 0 mm 2 mps 745 mmHg 97%
11:00 +2°C° 0 mm 2 mps 745 mmHg 96%
12:00 +2°C° 0 mm 2 mps 745 mmHg 95%
13:00 +2°C° 0 mm 2 mps 745 mmHg 96%
14:00 +2°C° 0 mm 2 mps 745 mmHg 96%
15:00 +3°C° 0 mm 1 mps 745 mmHg 97%
16:00 +2°C° 0 mm 1 mps 745 mmHg 98%
17:00 +2°C° 0 mm 1 mps 745 mmHg 98%
18:00 +2°C° 0 mm 1 mps 745 mmHg 98%
19:00 +2°C° 0.1 mm 1 mps 746 mmHg 98%
20:00 +2°C° 0.1 mm 1 mps 746 mmHg 98%
21:00 +2°C° 0.1 mm 1 mps 746 mmHg 98%
22:00 +2°C° 0.1 mm 1 mps 746 mmHg 98%
23:00 -1°C° 0.1 mm 2 mps 746 mmHg 98%

Tomorrow, 25 November, Wednesday

Time Temperature Precipitation Wind Pressure Humidity
00:00 -1°C° 0.1 mm 2 mps 746 mmHg 98%
01:00 -1°C° 0.1 mm 2 mps 746 mmHg 98%
02:00 -1°C° 0.1 mm 2 mps 747 mmHg 98%
03:00 +1°C° 0.1 mm 1 mps 747 mmHg 98%
04:00 -1°C° 0.2 mm 2 mps 747 mmHg 98%
05:00 -1°C° 0.2 mm 2 mps 747 mmHg 97%
06:00 -1°C° 0.2 mm 2 mps 747 mmHg 97%
07:00 -1°C° 0 mm 2 mps 747 mmHg 96%
08:00 -1°C° 0 mm 2 mps 748 mmHg 95%
09:00 -2°C° 0 mm 2 mps 748 mmHg 95%
10:00 -1°C° 0 mm 2 mps 748 mmHg 92%
11:00 -1°C° 0 mm 2 mps 749 mmHg 89%
12:00 -1°C° 0 mm 2 mps 749 mmHg 86%
13:00 -1°C° 0 mm 2 mps 749 mmHg 87%
14:00 -1°C° 0 mm 2 mps 750 mmHg 87%
15:00 -1°C° 0 mm 2 mps 750 mmHg 87%
16:00 +1°C° 0 mm 1 mps 750 mmHg 89%
17:00 0°C° 0 mm 1 mps 751 mmHg 90%
18:00 0°C° 0 mm 1 mps 751 mmHg 91%
19:00 0°C° 0 mm 1 mps 751 mmHg 93%
20:00 0°C° 0 mm 1 mps 752 mmHg 95%
21:00 0°C° 0 mm 1 mps 752 mmHg 96%
22:00 -1°C° 0 mm 1 mps 752 mmHg 96%
23:00 -1°C° 0 mm 1 mps 752 mmHg 97%

Day after tomorrow, 26 November, Thursday

Time Temperature Precipitation Wind Pressure Humidity
00:00 -1°C° 0 mm 1 mps 752 mmHg 97%
01:00 -1°C° 0 mm 1 mps 753 mmHg 97%
02:00 -1°C° 0 mm 1 mps 753 mmHg 96%
03:00 -1°C° 0 mm 1 mps 753 mmHg 96%
04:00 -1°C° 0 mm 1 mps 753 mmHg 95%
05:00 -1°C° 0 mm 1 mps 753 mmHg 95%
06:00 -1°C° 0 mm 1 mps 753 mmHg 94%
07:00 -1°C° 0 mm 1 mps 753 mmHg 94%
08:00 -1°C° 0 mm 1 mps 754 mmHg 93%
09:00 -1°C° 0 mm 1 mps 754 mmHg 93%
10:00 0°C° 0 mm 1 mps 754 mmHg 90%
11:00 -2°C° 0 mm 2 mps 753 mmHg 87%
12:00 -1°C° 0 mm 2 mps 753 mmHg 84%
13:00 -1°C° 0 mm 2 mps 753 mmHg 85%
14:00 -1°C° 0 mm 2 mps 753 mmHg 86%
15:00 -2°C° 0 mm 2 mps 753 mmHg 86%
16:00 -2°C° 0 mm 3 mps 752 mmHg 88%
17:00 -2°C° 0 mm 3 mps 752 mmHg 90%
18:00 -3°C° 0 mm 4 mps 751 mmHg 92%
19:00 -2°C° 0.2 mm 4 mps 751 mmHg 93%
20:00 -2°C° 0.2 mm 4 mps 750 mmHg 94%
21:00 -2°C° 0.2 mm 4 mps 750 mmHg 96%
22:00 -1°C° 0.4 mm 4 mps 750 mmHg 96%
23:00 -1°C° 0.4 mm 4 mps 749 mmHg 96%

27 November, Friday

Time Temperature Precipitation Wind Pressure Humidity
00:00 0°C° 0.4 mm 3 mps 749 mmHg 96%
01:00 +1°C° 0 mm 3 mps 749 mmHg 96%
02:00 +1°C° 0 mm 3 mps 748 mmHg 95%
03:00 +1°C° 0 mm 3 mps 748 mmHg 95%
04:00 +1°C° 0 mm 3 mps 748 mmHg 93%
05:00 0°C° 0 mm 4 mps 747 mmHg 92%
06:00 -1°C° 0 mm 4 mps 747 mmHg 90%
07:00 -1°C° 0 mm 4 mps 747 mmHg 89%
08:00 -1°C° 0 mm 4 mps 747 mmHg 89%
09:00 0°C° 0 mm 3 mps 746 mmHg 89%
10:00 -1°C° 0 mm 4 mps 746 mmHg 88%
11:00 -1°C° 0 mm 4 mps 746 mmHg 87%
12:00 -1°C° 0 mm 4 mps 746 mmHg 86%
13:00 -1°C° 0 mm 4 mps 746 mmHg 87%
14:00 0°C° 0 mm 3 mps 746 mmHg 89%
15:00 -1°C° 0 mm 3 mps 746 mmHg 90%
16:00 -1°C° 0 mm 3 mps 746 mmHg 92%
17:00 -1°C° 0 mm 3 mps 746 mmHg 94%
18:00 -1°C° 0 mm 3 mps 746 mmHg 96%
19:00 -1°C° 0.1 mm 3 mps 746 mmHg 97%
20:00 +1°C° 0.1 mm 2 mps 747 mmHg 97%
21:00 +1°C° 0.1 mm 2 mps 747 mmHg 98%
22:00 +1°C° 0.1 mm 2 mps 747 mmHg 98%
23:00 +1°C° 0.1 mm 2 mps 747 mmHg 98%

28 November, Saturday

Time Temperature Precipitation Wind Pressure Humidity
00:00 +1°C° 0.1 mm 2 mps 748 mmHg 98%
01:00 +1°C° 0.1 mm 2 mps 748 mmHg 98%
02:00 +2°C° 0.1 mm 1 mps 748 mmHg 98%
03:00 +2°C° 0.1 mm 1 mps 748 mmHg 98%
04:00 +2°C° 0 mm 1 mps 748 mmHg 98%
05:00 +2°C° 0 mm 1 mps 749 mmHg 98%
06:00 +2°C° 0 mm 1 mps 749 mmHg 98%
07:00 +2°C° 0 mm 1 mps 749 mmHg 98%
08:00 +2°C° 0 mm 1 mps 750 mmHg 97%
09:00 +1°C° 0 mm 0 mps 750 mmHg 97%
10:00 +2°C° 0 mm 1 mps 751 mmHg 96%
11:00 +2°C° 0 mm 1 mps 751 mmHg 95%
12:00 +3°C° 0 mm 1 mps 752 mmHg 94%
13:00 +2°C° 0 mm 1 mps 752 mmHg 95%
14:00 +2°C° 0 mm 1 mps 752 mmHg 95%
15:00 +2°C° 0 mm 1 mps 753 mmHg 96%
16:00 +1°C° 0 mm 1 mps 753 mmHg 96%
17:00 +1°C° 0 mm 1 mps 754 mmHg 95%
18:00 +1°C° 0 mm 1 mps 754 mmHg 95%
19:00 0°C° 0 mm 0 mps 755 mmHg 95%
20:00 0°C° 0 mm 0 mps 755 mmHg 94%
21:00 0°C° 0 mm 0 mps 756 mmHg 94%
22:00 0°C° 0 mm 0 mps 756 mmHg 94%
23:00 0°C° 0 mm 0 mps 757 mmHg 94%

29 November, Sunday

Time Temperature Precipitation Wind Pressure Humidity
00:00 +1°C° 0 mm 1 mps 757 mmHg 95%
01:00 0°C° 0 mm 1 mps 757 mmHg 95%
02:00 0°C° 0 mm 1 mps 758 mmHg 95%
03:00 -2°C° 0 mm 2 mps 758 mmHg 95%
04:00 -2°C° 0 mm 2 mps 758 mmHg 94%
05:00 -3°C° 0 mm 2 mps 759 mmHg 94%
06:00 -3°C° 0 mm 2 mps 759 mmHg 93%
07:00 -3°C° 0 mm 2 mps 759 mmHg 92%
08:00 -3°C° 0 mm 2 mps 759 mmHg 91%
09:00 -3°C° 0 mm 2 mps 760 mmHg 90%
10:00 -3°C° 0 mm 2 mps 760 mmHg 88%
11:00 -2°C° 0 mm 2 mps 760 mmHg 86%
12:00 -2°C° 0 mm 3 mps 760 mmHg 84%
13:00 -2°C° 0 mm 3 mps 760 mmHg 85%
14:00 -2°C° 0 mm 3 mps 761 mmHg 86%
15:00 -2°C° 0 mm 3 mps 761 mmHg 87%
16:00 -2°C° 0 mm 3 mps 761 mmHg 88%
17:00 -2°C° 0 mm 3 mps 761 mmHg 88%
18:00 -4°C° 0 mm 4 mps 761 mmHg 89%
19:00 -3°C° 0 mm 4 mps 761 mmHg 89%
20:00 -3°C° 0 mm 4 mps 761 mmHg 89%
21:00 -3°C° 0 mm 4 mps 761 mmHg 90%
22:00 -3°C° 0 mm 4 mps 761 mmHg 90%
23:00 -3°C° 0 mm 4 mps 761 mmHg 91%
Show more

We Need Your Consent

Meteoprog and our Service Providers may store and access personal data such as cookies, device identifiers or other similar technologies on your device and process such data to personalise content and ads, as well as provide social media features and to analyse the traffic.

  • Store and/or access information on your device

    Cookies, device identifiers or other information can be stored or accessed on your device for the purposes indicated above.

  • Personalised ads and content, ad and content measurement, audience insights, and products development

    Ads and content can be personalised based on a profile. More data can be added to better personalise ads and content. Ad and content performance can be measured. Insights about the audience who saw the ads and content can be derived. Such data can be used to develop or improve user’s experience, systems and software.

By clicking ‘I Agree’ you will allow the use of indicated cookies, device identifiers, web beacons or other similar technologies. Your settings can be changed in the browser on your device.

For certain purposes, legitimate interests may be relied on, rather than consent. You can read more about this in our Privacy and Cookie Policy.